Volver al catálogo

CZ-6A DEB

ActivoPO
NORAD 54576·DEBRIS·🇨🇳 China

Lanzado Nov 11, 2022 desde Taiyuan Satellite Launch Center

Loading…

Próximos Pases (próximas 24 horas)

TLE

ActualizadoSource: Space-Track

Época: Sep 13, 2026, 17:55 UTC

1 54576U 22151MC  26256.74712422  .00023821  00000-0  20261-2 0  9997
2 54576  98.6184 337.9328 0035748 334.3257  25.6186 14.97333152132365

Sigue CZ-6A DEB en tiempo real con AllMySat

Download on the App Store